Showing default

ION SCV-020, 64545

Orbit data source: Space-Track

ION SCV-020, 64545 is a payload satellite owned by D-ORBIT (IT) in SSO that was launched on Mon, 23 Jun 2025 UTC via an FALCON 9 launch vehicle from the Air Force Western Test Range (AFWTR). Payload-class satellites include a variety of spacecraft equipped with specific instruments for various scientific and technological missions. These include communications satellites like Starlink; space stations such as the ISS; scientific satellites like the Hubble; Earth observation satellites from companies like Planet Labs, Umbra, and HawkEye 360; GPS; miniature CubeSats for education and research; and military/defense satellites.

Loading next visibility...
Identifier
64545, 2025-135T
Orbit
SSO
Country
Flag of ITIT
Related business
Manufacturer
D-ORBIT
Mission
Operational Commercial Technology
Bus & Motor
ION-SC, PM200
Mass
220 kg wet, 150 kg dry
Launch date (UTC)
2025-06-23 (11 months ago)
Launch vehicle
FALCON 9
Launch site
Air Force Western Test Range (AFWTR)
Object type
Payload
Rocket body
Debris
Shape & HBR
Box, 0.2 m
Radar Cross Section
0.240 m², Medium (>0.1 m² and < 1m²)

Expand to show TLE details & history
Last TLE update: 12 hours ago

TLE from 12 hours ago
0 ION SCV-020
1 64545U 25135T   26133.06546471  .00002077  00000-0  98009-4 0  9994
2 64545  97.4667 248.4212 0001427 281.5024  78.6051 15.20577363 49519
Epoch: 2026-05-13T01:34Z
TLE epoch observation values (Epoch: 2026-05-13T01:34:16.150Z)
Latitude
-0.00005°
Longitude
-5.97692°
Altitude
506.993 km
Speed
7.611 km/s
True Right ascension
16h 33m 41s
True Declination
0° 00' 00"
Sunlit
Object was in full shadow at epoch
Visualization orbit readout
Latitude
Unknown
Longitude
Unknown
Altitude
Unknown
Speed
Unknown
Apparent Right ascension
Unknown
Apparent Declination
Unknown
Sunlit
N/A
Visualization observer readout
Local Sidereal Time
22:05:38
Azimuth
Unknown
Elevation
Unknown
Doppler factor
Unknown
Orbital elements
Apogee altitude
502.047 km
Perigee altitude
500.084 km
Semi-major axis
6,879.203 km
Eccentricity
0.00014
Inclination
97.4667°
RAAN
248.4212°
Arg. of periapsis
281.5024°
True anomaly
78.62113°
Mean anomaly
78.6051°
Eccentric anomaly
78.61312°
Mean motion
3.80396 °/min
Orbital period
94.64 mins
BSTAR
0.000098009
Loading maneuver chart data...
Computing Atmospheric mass density...
Loading historical data...
Loading historical data...
Loading historical data...
Loading historical data...
Loading historical data...
Loading historical data...
Loading historical data...

Documentation

Showing up to 5 results
|